Regional Weather Roundup
Issued by NWS Kansas City/Pleasant Hill, MO

Home | Current Version | Previous Version | Text Only | Print | Product List | Glossary On
Versions: 1 2 3 4 5 6 7 8 9 10 11 12 13 14 15 16 17 18 19 20 21 22 23 24 25 26 27 28 29 30 31 32 33 34 35 36 37 38 39 40 41 42 43 44 45 46 47 48 49 50
000
ASUS43 KEAX 231410
RWREAX

WEATHER ROUNDUP FOR EASTERN KANSAS AND NORTHWEST MISSOURI
NATIONAL WEATHER SERVICE KANSAS CITY/PLEASANT HILL MO
900 AM CDT SAT AUG 23 2014

KSZ040-057-103>105-MOZ028-029-037-043-231500-
...KANSAS CITY METROPOLITAN AREA...

CITY           SKY/WX    TMP DP  RH WIND       PRES   REMARKS
K.C. INTL      MOSUNNY   81  69  67 S6        29.93F
K.C. DOWNTOWN  SUNNY     83  69  62 SE5       29.92S
LEES SUMMIT    SUNNY     80  70  71 VRB3      29.95R
OLATHE - IXD   SUNNY     80  70  71 S8        29.93S
OLATHE - OJC   SUNNY     78  70  76 S8        29.93S
LAWRENCE       SUNNY     83  68  60 CALM      29.92S

$$

MOZ001>008-011>017-020>025-030>033-038>040-044>046-053-054-231500-
...NORTHERN AND CENTRAL MISSOURI...

CITY           SKY/WX    TMP DP  RH WIND       PRES   REMARKS
ST. JOSEPH     MOSUNNY   80  74  81 CALM      29.91S
MOSBY          MOSUNNY   79  72  78 SE5       29.93S
WHITEMAN AFB   MOSUNNY   83  62  48 SW9       29.94F
CLINTON        MOSUNNY   81  73  78 CALM      29.98S
SEDALIA        SUNNY     83  71  67 SW15G21   29.97S
WARSAW         NOT AVBL
MARSHALL       MOSUNNY   82  75  78 SW9       29.96S
CHILLICOTHE      N/A     80  73  79 SE6       29.96S
MOBERLY        MOSUNNY   84  72  65 W6        29.98R
KIRKSVILLE     LGT RAIN  75  71  87 NE15      30.00R

$$

MOZ041-047>049-056>058-063>065-088>090-097-231500-
...EASTERN AND SOUTHERN MISSOURI...

CITY           SKY/WX    TMP DP  RH WIND       PRES   REMARKS
ST. LOUIS INTL MOSUNNY   86  74  67 W10       29.97R HX  94
SPIRIT OF STL  MOSUNNY   84  74  71 W8        29.96R HX  91
COLUMBIA       SUNNY     83  73  72 SW8       29.98S
JEFFERSON CITY SUNNY     83  72  69 SW5       29.97S
MEXICO         SUNNY     84  79  84 SW9       29.97S HX  96
ROLLA          SUNNY     81  71  71 SW8       30.00S
LEBANON        SUNNY     84  68  58 SW13      30.03S
OSAGE BEACH    SUNNY     82  72  69 SW8       29.99S
SPRINGFIELD    SUNNY     81  70  69 S8        30.02R
BRANSON        SUNNY     86  70  58 SW8       30.05R HX  90
NEVADA         SUNNY     82  70  65 S9        29.98S
JOPLIN         MOSUNNY   83  69  62 S15G23    29.99R
WEST PLAINS    MOSUNNY   80  73  79 W6        30.05R

$$

IAZ060-094-KSZ022-034>040-054-083-096-NEZ052-066-093-231500-
...KANSAS...SOUTHEAST NEBRASKA AND IOWA...

CITY           SKY/WX    TMP DP  RH WIND       PRES   REMARKS
TOPEKA         SUNNY     81  68  64 S7        29.91S
MANHATTAN      SUNNY     81  64  56 SE3       29.89R
EMPORIA        SUNNY     78  65  63 S16       29.91R
CHANUTE        SUNNY     82  68  62 S15       29.96R
WICHITA        SUNNY     80  59  48 S12       29.91R
OMAHA          CLOUDY    74  69  85 SE10      29.87F
LINCOLN        PTSUNNY   73  68  84 SE12      29.89R
FALLS CITY     MOSUNNY   75  71  87 SE10      29.89F
LAMONI         CLOUDY    71  70  96 SE5       29.93F
DES MOINES     LGT RAIN  73  70  90 SE7       29.91F

$$



USA.gov is the U.S. government's official web portal to all federal, state and local government web resources and services.